Kosmos-2477

operational
NORAD ID: 37869 Int'l Des: 2011-064 Owner: KVR/IACG Country: RU Constellation: GLONASS
MEOCIRCULAR

Über Kosmos-2477

Beschreibung wird geladen...

Live-Position

3D-Globus wird geladen...

Nächste Überflüge

Höhenverlauf

Altitude vs Time

uPlot chart will show altitude changes over time

Zweizeiliger Elementsatz

1 37869U 11064C 26034.52883502 .00000002 00000-0 00000+0 0 9994
2 37869 65.2043 77.4836 0027848 252.4888 109.9218 2.13101440110925
Epoch: 3. Feb. 2026 • Age: 5 hours

Aktueller Status

Höhe 19116.6 km
Geschwindigkeit 3.96 km/s
Subsatellitenpunkt 6.21°N, 149.98°W
Startdatum 4. Nov. 2011
Alter 14.2 years
Typ other

Technische Details

Klassifizierung Payload
Masse 1450.00 kg
Trockenmasse 1200.00 kg
Gesamtmasse 1450.00 kg
Länge 4.00 m
Durchmesser 1.50 m
Spannweite 7.80 m
Form Cyl + Ant + 2 Pan
Hersteller RESH
Bus-Typ Uragan
Phasenstatus In Orbit
Besitzer/Staat KVR/IACG/RU

Große Konstellationen

Loading constellations...